Time,TemperatureF,DewpointF,PressureIn,WindDirection,WindDirectionDegrees,WindSpeedMPH,WindSpeedGustMPH,Humidity,HourlyPrecipIn,Conditions,Clouds,dailyrainin,SoftwareType,DateUTC
2013-09-04 00:08:00,73.7,68.0,29.95,NNW,334,0.0,-999.0,81,-99.99,,,0.00,weatherlink.com 1.10,2013-09-04 06:08:00,
2013-09-04 00:23:00,73.3,67.0,29.94,NNW,334,0.0,-999.0,81,-99.99,,,0.00,weatherlink.com 1.10,2013-09-04 06:23:00,
2013-09-04 00:38:00,73.0,67.0,29.94,NNW,334,0.0,-999.0,81,-99.99,,,0.00,weatherlink.com 1.10,2013-09-04 06:38:00,
2013-09-04 00:53:00,73.3,68.0,29.94,NNW,334,0.0,-999.0,82,-99.99,,,0.00,weatherlink.com 1.10,2013-09-04 06:53:00,
2013-09-04 01:08:00,73.1,68.0,29.94,NNW,334,0.0,-999.0,83,-99.99,,,0.00,weatherlink.com 1.10,2013-09-04 07:08:00,
2013-09-04 01:23:00,72.9,67.0,29.95,NNW,334,0.0,-999.0,81,-99.99,,,0.00,weatherlink.com 1.10,2013-09-04 07:23:00,
2013-09-04 01:38:00,73.0,67.0,29.95,NNW,334,0.0,-999.0,81,-99.99,,,0.00,weatherlink.com 1.10,2013-09-04 07:38:00,
2013-09-04 01:53:00,72.9,67.0,29.95,NNW,334,0.0,-999.0,81,-99.99,,,0.00,weatherlink.com 1.10,2013-09-04 07:53:00,
2013-09-04 02:08:00,72.8,67.0,29.95,NNW,334,0.0,-999.0,81,-99.99,,,0.00,weatherlink.com 1.10,2013-09-04 08:08:00,
2013-09-04 02:23:00,72.3,66.0,29.96,NNW,334,0.0,-999.0,81,-99.99,,,0.00,weatherlink.com 1.10,2013-09-04 08:23:00,
2013-09-04 02:38:00,72.3,67.0,29.95,NNW,334,0.0,-999.0,82,-99.99,,,0.00,weatherlink.com 1.10,2013-09-04 08:38:00,
2013-09-04 02:53:00,72.1,66.0,29.95,NNW,334,0.0,-999.0,82,-99.99,,,0.00,weatherlink.com 1.10,2013-09-04 08:53:00,
2013-09-04 03:08:00,71.7,66.0,29.95,NNW,334,0.0,-999.0,82,-99.99,,,0.00,weatherlink.com 1.10,2013-09-04 09:08:00,
2013-09-04 03:23:00,71.6,66.0,29.95,NNW,334,0.0,-999.0,83,-99.99,,,0.00,weatherlink.com 1.10,2013-09-04 09:23:00,
2013-09-04 03:38:00,71.3,66.0,29.96,NNW,334,0.0,-999.0,83,-99.99,,,0.00,weatherlink.com 1.10,2013-09-04 09:38:00,
2013-09-04 03:53:00,71.1,66.0,29.96,NNW,334,0.0,-999.0,83,-99.99,,,0.00,weatherlink.com 1.10,2013-09-04 09:53:00,
2013-09-04 04:08:00,71.3,66.0,29.96,NNW,334,0.0,-999.0,83,-99.99,,,0.00,weatherlink.com 1.10,2013-09-04 10:08:00,
2013-09-04 04:23:00,71.3,66.0,29.97,NNW,334,0.0,-999.0,83,-99.99,,,0.00,weatherlink.com 1.10,2013-09-04 10:23:00,
2013-09-04 04:38:00,71.3,66.0,29.97,NNW,334,0.0,-999.0,83,-99.99,,,0.00,weatherlink.com 1.10,2013-09-04 10:38:00,
2013-09-04 04:53:00,71.6,66.0,29.97,NNW,334,0.0,-999.0,82,-99.99,,,0.00,weatherlink.com 1.10,2013-09-04 10:53:00,
2013-09-04 05:08:00,71.7,66.0,29.97,NNW,334,0.0,-999.0,82,-99.99,,,0.00,weatherlink.com 1.10,2013-09-04 11:08:00,
2013-09-04 05:23:00,71.7,66.0,29.97,NNW,334,0.0,-999.0,82,-99.99,,,0.00,weatherlink.com 1.10,2013-09-04 11:23:00,
2013-09-04 05:38:00,71.7,66.0,29.98,NNW,334,0.0,-999.0,82,-99.99,,,0.00,weatherlink.com 1.10,2013-09-04 11:38:00,
2013-09-04 05:53:00,71.9,67.0,29.99,NNW,334,0.0,-999.0,83,-99.99,,,0.00,weatherlink.com 1.10,2013-09-04 11:53:00,
2013-09-04 06:08:00,72.4,67.0,30.01,NNW,340,0.0,-999.0,82,-99.99,,,0.00,weatherlink.com 1.10,2013-09-04 12:08:00,
2013-09-04 06:23:00,72.1,68.0,30.02,East,88,0.0,-999.0,86,-99.99,,,0.04,weatherlink.com 1.10,2013-09-04 12:23:00,
2013-09-04 06:38:00,71.7,68.0,30.02,East,88,0.0,-999.0,88,-99.99,,,0.06,weatherlink.com 1.10,2013-09-04 12:38:00,
2013-09-04 06:53:00,71.6,68.0,30.03,East,88,0.0,-999.0,88,-99.99,,,0.06,weatherlink.com 1.10,2013-09-04 12:53:00,
2013-09-04 07:08:00,71.9,69.0,30.02,East,88,0.0,-999.0,89,-99.99,,,0.06,weatherlink.com 1.10,2013-09-04 13:08:00,
2013-09-04 07:23:00,72.1,69.0,30.02,East,88,0.0,-999.0,90,-99.99,,,0.06,weatherlink.com 1.10,2013-09-04 13:23:00,
2013-09-04 07:38:00,72.5,70.0,30.02,East,88,0.0,-999.0,90,-99.99,,,0.06,weatherlink.com 1.10,2013-09-04 13:38:00,
2013-09-04 07:53:00,72.3,69.0,30.00,East,88,0.0,-999.0,90,-99.99,,,0.06,weatherlink.com 1.10,2013-09-04 13:53:00,
2013-09-04 08:08:00,72.5,70.0,30.01,East,88,0.0,-999.0,90,-99.99,,,0.06,weatherlink.com 1.10,2013-09-04 14:08:00,
2013-09-04 08:23:00,72.7,70.0,30.02,East,88,0.0,-999.0,90,-99.99,,,0.06,weatherlink.com 1.10,2013-09-04 14:23:00,
2013-09-04 08:38:00,73.1,70.0,30.02,East,88,0.0,-999.0,90,-99.99,,,0.06,weatherlink.com 1.10,2013-09-04 14:38:00,
2013-09-04 08:53:00,73.7,71.0,30.02,East,88,0.0,-999.0,91,-99.99,,,0.06,weatherlink.com 1.10,2013-09-04 14:53:00,
2013-09-04 09:08:00,74.0,71.0,30.03,East,88,0.0,-999.0,90,-99.99,,,0.06,weatherlink.com 1.10,2013-09-04 15:08:00,
2013-09-04 09:23:00,74.2,71.0,30.03,East,88,0.0,-999.0,89,-99.99,,,0.06,weatherlink.com 1.10,2013-09-04 15:23:00,
2013-09-04 09:38:00,75.1,71.0,30.03,East,88,0.0,-999.0,87,-99.99,,,0.06,weatherlink.com 1.10,2013-09-04 15:38:00,
2013-09-04 09:53:00,75.9,71.0,30.03,East,88,0.0,-999.0,84,-99.99,,,0.06,weatherlink.com 1.10,2013-09-04 15:53:00,
2013-09-04 10:08:00,77.3,71.0,30.03,East,88,0.0,-999.0,80,-99.99,,,0.06,weatherlink.com 1.10,2013-09-04 16:08:00,
2013-09-04 10:23:00,78.7,70.0,30.03,East,88,0.0,-999.0,74,-99.99,,,0.06,weatherlink.com 1.10,2013-09-04 16:23:00,
2013-09-04 10:38:00,80.0,71.0,30.04,East,99,0.0,-999.0,73,-99.99,,,0.06,weatherlink.com 1.10,2013-09-04 16:38:00,
2013-09-04 10:53:00,80.9,70.0,30.04,East,99,0.0,-999.0,70,-99.99,,,0.06,weatherlink.com 1.10,2013-09-04 16:53:00,
2013-09-04 11:08:00,81.8,70.0,30.03,East,99,0.0,-999.0,68,-99.99,,,0.06,weatherlink.com 1.10,2013-09-04 17:08:00,
2013-09-04 11:23:00,82.5,70.0,30.03,East,99,0.0,-999.0,67,-99.99,,,0.06,weatherlink.com 1.10,2013-09-04 17:23:00,
2013-09-04 11:38:00,83.3,70.0,30.03,East,99,0.0,-999.0,65,-99.99,,,0.06,weatherlink.com 1.10,2013-09-04 17:38:00,
2013-09-04 11:53:00,83.9,69.0,30.03,East,99,0.0,-999.0,61,-99.99,,,0.06,weatherlink.com 1.10,2013-09-04 17:53:00,
2013-09-04 12:23:00,84.9,70.0,30.02,East,99,0.0,-999.0,61,-99.99,,,0.06,weatherlink.com 1.10,2013-09-04 18:23:00,
2013-09-04 12:38:00,85.6,69.0,30.01,East,99,0.0,-999.0,57,-99.99,,,0.06,weatherlink.com 1.10,2013-09-04 18:38:00,
2013-09-04 12:53:00,86.1,69.0,30.01,East,99,0.0,-999.0,56,-99.99,,,0.06,weatherlink.com 1.10,2013-09-04 18:53:00,
2013-09-04 13:08:00,86.8,68.0,30.01,East,99,0.0,-999.0,54,-99.99,,,0.06,weatherlink.com 1.10,2013-09-04 19:08:00,
2013-09-04 13:23:00,87.1,69.0,30.00,East,99,0.0,-999.0,55,-99.99,,,0.06,weatherlink.com 1.10,2013-09-04 19:23:00,
2013-09-04 13:38:00,89.1,69.0,30.00,SSE,156,0.0,-999.0,51,-99.99,,,0.06,weatherlink.com 1.10,2013-09-04 19:38:00,
2013-09-04 13:53:00,90.3,68.0,29.99,SE,130,0.0,-999.0,48,-99.99,,,0.06,weatherlink.com 1.10,2013-09-04 19:53:00,
2013-09-04 14:08:00,92.0,69.0,29.98,SE,127,0.0,-999.0,47,-99.99,,,0.06,weatherlink.com 1.10,2013-09-04 20:08:00,
2013-09-04 14:23:00,91.8,68.0,29.98,WNW,282,0.0,-999.0,46,-99.99,,,0.06,weatherlink.com 1.10,2013-09-04 20:23:00,
2013-09-04 14:38:00,92.3,66.0,29.96,ESE,104,1.0,-999.0,42,-99.99,,,0.06,weatherlink.com 1.10,2013-09-04 20:38:00,
2013-09-04 14:53:00,93.4,66.0,29.96,SW,214,0.0,-999.0,40,-99.99,,,0.06,weatherlink.com 1.10,2013-09-04 20:53:00,
2013-09-04 15:08:00,94.6,67.0,29.94,SSW,211,0.0,-999.0,40,-99.99,,,0.06,weatherlink.com 1.10,2013-09-04 21:08:00,
2013-09-04 15:23:00,95.2,65.0,29.93,SW,216,0.0,-999.0,37,-99.99,,,0.06,weatherlink.com 1.10,2013-09-04 21:23:00,
2013-09-04 15:38:00,95.5,67.0,29.94,NNW,335,0.0,-999.0,39,-99.99,,,0.06,weatherlink.com 1.10,2013-09-04 21:38:00,
2013-09-04 15:53:00,95.4,65.0,29.94,ESE,119,1.0,-999.0,37,-99.99,,,0.06,weatherlink.com 1.10,2013-09-04 21:53:00,
2013-09-04 16:08:00,94.5,65.0,29.93,SE,130,0.0,-999.0,38,-99.99,,,0.06,weatherlink.com 1.10,2013-09-04 22:08:00,
2013-09-04 16:23:00,92.5,65.0,29.93,ESE,109,0.0,-999.0,40,-99.99,,,0.06,weatherlink.com 1.10,2013-09-04 22:23:00,
2013-09-04 16:38:00,92.9,67.0,29.93,East,95,7.0,-999.0,42,-99.99,,,0.06,weatherlink.com 1.10,2013-09-04 22:38:00,
2013-09-04 16:53:00,90.1,68.0,29.94,SE,146,1.0,-999.0,48,-99.99,,,0.06,weatherlink.com 1.10,2013-09-04 22:53:00,
2013-09-04 17:08:00,88.4,66.0,29.96,ESE,123,0.0,-999.0,48,-99.99,,,0.06,weatherlink.com 1.10,2013-09-04 23:08:00,
2013-09-04 17:23:00,86.6,66.0,29.95,East,99,0.0,-999.0,51,-99.99,,,0.06,weatherlink.com 1.10,2013-09-04 23:23:00,
2013-09-04 17:38:00,85.5,65.0,29.95,ESE,114,0.0,-999.0,51,-99.99,,,0.06,weatherlink.com 1.10,2013-09-04 23:38:00,
2013-09-04 17:53:00,84.0,65.0,29.95,ESE,113,0.0,-999.0,53,-99.99,,,0.06,weatherlink.com 1.10,2013-09-04 23:53:00,
2013-09-04 18:08:00,83.3,64.0,29.97,SSW,210,0.0,-999.0,53,-99.99,,,0.06,weatherlink.com 1.10,2013-09-05 00:08:00,
2013-09-04 18:23:00,83.1,65.0,29.96,WSW,247,0.0,-999.0,55,-99.99,,,0.06,weatherlink.com 1.10,2013-09-05 00:23:00,
2013-09-04 18:38:00,82.4,65.0,29.97,West,269,0.0,-999.0,56,-99.99,,,0.06,weatherlink.com 1.10,2013-09-05 00:38:00,
2013-09-04 18:53:00,81.6,65.0,29.98,West,269,0.0,-999.0,57,-99.99,,,0.06,weatherlink.com 1.10,2013-09-05 00:53:00,
2013-09-04 19:08:00,80.9,65.0,29.98,West,269,0.0,-999.0,59,-99.99,,,0.06,weatherlink.com 1.10,2013-09-05 01:08:00,
2013-09-04 19:23:00,80.1,64.0,29.97,West,269,0.0,-999.0,59,-99.99,,,0.06,weatherlink.com 1.10,2013-09-05 01:23:00,
2013-09-04 19:38:00,79.7,64.0,29.98,West,269,0.0,-999.0,59,-99.99,,,0.06,weatherlink.com 1.10,2013-09-05 01:38:00,
2013-09-04 19:53:00,79.2,65.0,30.00,West,269,0.0,-999.0,61,-99.99,,,0.06,weatherlink.com 1.10,2013-09-05 01:53:00,
2013-09-04 20:08:00,78.5,65.0,30.00,West,269,0.0,-999.0,64,-99.99,,,0.06,weatherlink.com 1.10,2013-09-05 02:08:00,
2013-09-04 20:23:00,78.0,65.0,30.00,West,269,0.0,-999.0,65,-99.99,,,0.06,weatherlink.com 1.10,2013-09-05 02:23:00,
2013-09-04 20:38:00,77.7,65.0,30.02,West,269,0.0,-999.0,66,-99.99,,,0.06,weatherlink.com 1.10,2013-09-05 02:38:00,
2013-09-04 20:53:00,77.6,65.0,30.02,West,269,0.0,-999.0,66,-99.99,,,0.06,weatherlink.com 1.10,2013-09-05 02:53:00,
2013-09-04 21:08:00,77.8,66.0,30.02,West,269,0.0,-999.0,66,-99.99,,,0.06,weatherlink.com 1.10,2013-09-05 03:08:00,
2013-09-04 21:23:00,77.8,66.0,30.03,West,269,0.0,-999.0,67,-99.99,,,0.06,weatherlink.com 1.10,2013-09-05 03:23:00,
2013-09-04 21:38:00,77.9,66.0,30.04,West,269,0.0,-999.0,66,-99.99,,,0.06,weatherlink.com 1.10,2013-09-05 03:38:00,
2013-09-04 21:53:00,77.6,66.0,30.04,West,269,0.0,-999.0,67,-99.99,,,0.06,weatherlink.com 1.10,2013-09-05 03:53:00,
2013-09-04 22:08:00,77.5,67.0,30.04,East,99,0.0,-999.0,69,-99.99,,,0.06,weatherlink.com 1.10,2013-09-05 04:08:00,
2013-09-04 22:23:00,78.3,68.0,30.04,SE,124,0.0,-999.0,70,-99.99,,,0.06,weatherlink.com 1.10,2013-09-05 04:23:00,
2013-09-04 22:38:00,78.0,68.0,30.03,ESE,123,0.0,-999.0,71,-99.99,,,0.06,weatherlink.com 1.10,2013-09-05 04:38:00,
2013-09-04 22:53:00,77.6,68.0,30.03,ESE,116,0.0,-999.0,71,-99.99,,,0.06,weatherlink.com 1.10,2013-09-05 04:53:00,
2013-09-04 23:08:00,77.4,68.0,30.02,ESE,116,0.0,-999.0,72,-99.99,,,0.00,weatherlink.com 1.10,2013-09-05 05:08:00,
2013-09-04 23:23:00,76.9,68.0,30.01,ESE,116,0.0,-999.0,74,-99.99,,,0.00,weatherlink.com 1.10,2013-09-05 05:23:00,
2013-09-04 23:38:00,76.5,68.0,30.02,ESE,116,0.0,-999.0,75,-99.99,,,0.00,weatherlink.com 1.10,2013-09-05 05:38:00,
2013-09-04 23:53:00,76.3,68.0,30.03,ESE,116,0.0,-999.0,76,-99.99,,,0.00,weatherlink.com 1.10,2013-09-05 05:53:00,